[[{"header":{"parameterUnit":"m.s-1","parameterCategory":1,"la1":30.2992,"la2":30.254,"lo1":-89.0895,"lo2":-89.0443,"dy":0.0025,"dx":0.0025,"nx":19,"ny":19,"refTime":"2026-04-26T09:00:00:Z","depth":0,"parameterNumber":2,"parameterNumberName":"U-component_of_WINDS"},"data":[0,0,0,-0.4081,-0.4076,-0.3844,-0.3843,-0.3576,-0.3574,0,0,0,0,0,0,0,0,0,0,0,-0.4169,-0.4168,-0.4081,-0.4076,-0.3844,-0.3843,-0.3577,-0.3574,0,0,0,0,0,0,0,0,0,0,0,-0.417,-0.4168,-0.4167,-0.4075,-0.3845,-0.3843,-0.3577,-0.3741,0,0,0,0,0,0,0,0,0,0,-0.3961,-0.4062,-0.4169,-0.4167,-0.4074,-0.3845,-0.3843,-0.3748,-0.3731,-0.3694,0,-0.367,0,-0.3618,-0.3558,-0.3557,0,0,0,-0.406,-0.4077,-0.3997,-0.4167,-0.4072,-0.3845,-0.3944,-0.3738,-0.3718,-0.3671,-0.3665,-0.3655,-0.3614,-0.3557,-0.3556,-0.3406,-0.3406,0,0,-0.4073,-0.4137,-0.4011,-0.3985,-0.4025,-0.3952,-0.3937,-0.3725,-0.3722,-0.3664,-0.3648,-0.3609,-0.3555,-0.3553,-0.3406,-0.3406,0,0,0,-0.412,-0.4147,-0.4071,-0.3997,-0.3953,-0.3946,-0.3929,-0.3732,-0.3702,-0.3645,-0.3606,-0.3554,-0.3551,-0.3406,-0.3406,-0.3472,0,0,0,-0.4127,-0.4174,-0.4078,-0.4115,-0.3958,-0.384,-0.3941,-0.3717,-0.369,-0.3608,-0.3554,-0.3549,-0.3406,-0.3406,-0.347,-0.3492,0,0,0,-0.4177,-0.418,-0.4154,-0.4119,-0.4022,-0.3842,-0.3799,-0.3709,-0.3668,-0.3557,-0.3548,-0.3406,-0.3406,-0.3468,-0.3489,-0.3473,0,0,0,-0.4249,-0.4214,-0.4156,-0.4102,-0.4024,-0.3886,-0.38,-0.3692,-0.3606,-0.3553,-0.3406,-0.3406,-0.3468,-0.3487,-0.3472,-0.3472,-0.3478,0,0,-0.424,-0.4215,-0.4178,-0.412,-0.4009,-0.3916,-0.3812,-0.367,-0.3599,-0.3474,-0.3469,-0.3471,-0.3489,-0.3473,-0.3489,-0.3495,0,0,0,-0.4197,-0.4172,-0.4128,-0.405,-0.3943,-0.3852,-0.372,-0.3667,-0.3558,-0.3549,-0.3458,-0.3467,-0.3455,-0.3452,-0.3456,-0.3442,-0.3407,-0.3407,-0.3407,-0.4277,-0.4191,-0.4124,-0.4011,-0.3936,-0.3801,-0.3732,-0.3638,-0.357,-0.355,-0.3513,-0.3533,-0.3533,-0.3535,-0.3522,-0.3505,-0.3505,-0.3506,-0.3506,-0.4258,-0.4208,-0.4122,-0.4027,-0.3936,-0.3853,-0.3722,-0.3677,-0.3586,-0.3554,-0.3539,-0.3512,-0.3544,-0.3527,-0.351,-0.3509,-0.3508,-0.3508,-0.3508,-0.4301,-0.4262,-0.4201,-0.4081,-0.3998,-0.3883,-0.3801,-0.3719,-0.3641,-0.3627,-0.3579,-0.3577,-0.3566,-0.361,-0.361,-0.361,-0.361,-0.361,-0.361,-0.437,-0.4299,-0.4242,-0.4127,-0.4067,-0.3978,-0.3843,-0.3781,-0.3691,-0.3638,-0.3637,-0.3572,-0.3564,-0.3564,-0.3611,-0.361,-0.361,-0.361,-0.361,-0.4383,-0.4368,-0.4279,-0.422,-0.4079,-0.4003,-0.39,-0.3782,-0.3718,-0.3681,-0.3619,-0.3626,-0.3593,-0.3589,-0.3588,-0.3638,-0.3638,-0.3638,-0.3638,-0.442,-0.4396,-0.4288,-0.4199,-0.4102,-0.4002,-0.3903,-0.3799,-0.3687,-0.3642,-0.3623,-0.3615,-0.3615,-0.3582,-0.3578,-0.3576,-0.3621,-0.3621,-0.3621,-0.4423,-0.4387,-0.432,-0.4214,-0.4098,-0.4,-0.3905,-0.3805,-0.3675,-0.3619,-0.3606,-0.3606,-0.3593,-0.3593,-0.3537,-0.3532,-0.3527,0,0]},{"header":{"parameterUnit":"m.s-1","parameterCategory":1,"la1":30.2992,"la2":30.254,"lo1":-89.0895,"lo2":-89.0443,"dy":0.0025,"dx":0.0025,"nx":19,"ny":19,"refTime":"2026-04-26T09:00:00:Z","depth":0,"parameterNumber":3,"parameterNumberName":"V-component_of_WINDS"},"data":[0,0,0,1.8962,1.8962,1.8956,1.8956,1.8941,1.8941,0,0,0,0,0,0,0,0,0,0,0,1.8961,1.896,1.8962,1.8961,1.8956,1.8956,1.8942,1.8941,0,0,0,0,0,0,0,0,0,0,0,1.8961,1.896,1.896,1.8961,1.8956,1.8956,1.8942,1.8948,0,0,0,0,0,0,0,0,0,0,1.8955,1.8951,1.896,1.896,1.8961,1.8956,1.8956,1.8948,1.8948,1.8942,0,1.8937,0,1.8939,1.894,1.894,0,0,0,1.8963,1.8952,1.8953,1.896,1.8961,1.8956,1.8959,1.8948,1.8947,1.894,1.8936,1.8936,1.8939,1.894,1.894,1.8901,1.8901,0,0,1.8964,1.8958,1.8954,1.8952,1.8954,1.8959,1.8959,1.8948,1.8942,1.8936,1.8936,1.8938,1.894,1.894,1.8901,1.8901,0,0,0,1.8963,1.8958,1.8959,1.8953,1.8952,1.8959,1.8958,1.8943,1.8944,1.8936,1.8938,1.894,1.8939,1.8902,1.8901,1.8882,0,0,0,1.8964,1.8958,1.8959,1.8956,1.8952,1.8948,1.8954,1.8945,1.8944,1.8938,1.894,1.8939,1.8902,1.8902,1.8883,1.8874,0,0,0,1.8962,1.8958,1.8956,1.8955,1.8953,1.8948,1.8949,1.8945,1.8945,1.894,1.8939,1.8902,1.8902,1.8885,1.8876,1.8861,0,0,0,1.8958,1.8939,1.8955,1.8935,1.8953,1.8937,1.8949,1.8937,1.8931,1.894,1.8902,1.8901,1.8885,1.8877,1.8862,1.8848,1.8841,0,0,1.8931,1.8936,1.8924,1.8939,1.8918,1.8938,1.8915,1.8914,1.8918,1.8906,1.8905,1.8883,1.8876,1.8862,1.8809,1.8804,0,0,0,1.8913,1.8905,1.8901,1.8895,1.8894,1.8892,1.8896,1.8896,1.8886,1.8912,1.8875,1.8871,1.8862,1.8856,1.8851,1.8844,1.8898,1.8898,1.8898,1.8865,1.8873,1.8854,1.886,1.8854,1.8858,1.8853,1.8853,1.8862,1.8853,1.8849,1.8816,1.8808,1.8805,1.8797,1.8843,1.8843,1.8842,1.8842,1.8825,1.8814,1.8826,1.8812,1.882,1.8807,1.881,1.8816,1.8805,1.882,1.8813,1.8828,1.8799,1.8793,1.8841,1.8841,1.8841,1.8842,1.8842,1.8794,1.879,1.879,1.8782,1.8774,1.8781,1.877,1.8777,1.8783,1.8776,1.8772,1.8773,1.8773,1.8774,1.8774,1.8774,1.8774,1.8774,1.8774,1.8761,1.8762,1.8752,1.875,1.8747,1.8743,1.8746,1.8743,1.874,1.8746,1.8746,1.8755,1.8796,1.8805,1.8772,1.8772,1.8773,1.8773,1.8773,1.8716,1.8727,1.8712,1.8709,1.8706,1.8697,1.8707,1.8698,1.8696,1.869,1.8701,1.873,1.8735,1.8739,1.8746,1.87,1.87,1.87,1.87,1.8689,1.8692,1.8678,1.8672,1.8667,1.8674,1.8655,1.8656,1.866,1.8659,1.8667,1.8678,1.8681,1.8684,1.8689,1.8696,1.8638,1.8638,1.8638,1.8661,1.8664,1.8647,1.8652,1.865,1.8648,1.863,1.8621,1.8627,1.8636,1.8658,1.866,1.8678,1.8684,1.8692,1.87,1.8713,0,0]}]]